Simultaneous Nadir Overpasses (SNOs) Predictions

Prediction of SNOs between METOP-A and TERRA Satellite Orbit:

Table of predicted SNOs for the next 14.0 days since TLE Epoch: 6/18/2013
Index Date (METOP-A) Time (METOP-A) Lat,Lon (METOP-A) SZA (METOP-A ) Date (TERRA) Time (TERRA) Lat,Lon (TERRA) SZA (TERRA ) Distance(km) Time Diff (sec)
1 06/18/2013 11:30:57 -81.30,-125.67 119.23 06/18/2013 11:31:29 -81.30,-125.75 119.23 1.32 32
2 06/18/2013 12:21:37 81.30, 42.02 60.81 06/18/2013 12:20:55 81.31, 42.02 60.80 0.61 42
3 06/21/2013 07:05:18 -81.29, -59.33 119.29 06/21/2013 07:05:44 -81.30, -59.29 119.27 0.91 26
4 06/21/2013 07:55:58 81.30, 108.30 60.76 06/21/2013 07:55:10 81.31, 108.45 60.75 2.61 48
5 06/24/2013 02:39:39 -81.29, 6.97 119.29 06/24/2013 02:39:59 -81.30, 7.09 119.26 2.06 20
6 06/
